sat.trackr.live / text

‹ back to catalog

KUIPER-00191

NORAD 67143 · 2025-301L

PAYLOAD ACTIVE UNKNOWN

§ Identity

Operator
Country
US
Launch date
2025-12-16
Launch site
AFETR
Launch vehicle
Mass (kg)
RCS (m²)

External: N2YO · Heavens-Above · Gunter

§ Orbital elements

Epoch: 2026-09-20T08:57:25.170336Z

Period
97.30 min
Inclination
51.9016°
Eccentricity
0.0000409
Mean motion
14.79939723 rev/d
Perigee alt
629.2 km
Apogee alt
629.8 km
Semi-major
7,007.7 km
B*
2.3290e-4
RAAN
292.2631°
Arg perigee
67.6633°
Mean anomaly
292.4372°
Rev number
4,248

§ Raw data

KUIPER-001911 67143U 25301L   26263.37320799  .00001555  00000+0  23290-3 0  99952 67143  51.9016 292.2631 0000409  67.6633 292.4372 14.79939723 42485

JSON: /api/v1/satellites/67143 · /tle

For live sub-satellite position, see the globe view (requires WebGL).

§ Visibility from observer

Set your observer location to see the next 7 days of passes ≥ 10°. The values pass through the URL so the page stays shareable.

No JS? Fill the form by hand. The geolocation button needs JavaScript.